| time (UTC) | temp F | wind direction | speed MPH | gust MPH | rain 1hr in | rain 24hr in | rain mn in | humidity % | barometer mb |
| 20260903235052 | 88 | 151 | 6.0 | 14.0 | 0.00 | 0.00 | 0.00 | 62 | 1007.9 |
| 20260903234050 | 89 | 137 | 7.0 | 14.0 | 0.00 | 0.00 | 0.00 | 60 | 1007.9 |
| 20260903233022 | 90 | 121 | 6.0 | 18.0 | 0.00 | 0.00 | 0.00 | 60 | 1007.8 |
| 20260903230819 | 92 | 111 | 9.0 | 19.0 | 0.00 | 0.00 | 0.00 | 56 | 1007.7 |
| 20260903224651 | 95 | 97 | 4.0 | 11.0 | 0.00 | 0.00 | 0.00 | 50 | 1007.3 |
| 20260903223639 | 96 | 121 | 6.0 | 13.0 | 0.00 | 0.00 | 0.00 | 50 | 1007.2 |
| 20260903222624 | 96 | 134 | 7.0 | 17.0 | 0.00 | 0.00 | 0.00 | 48 | 1007.3 |
| 20260903220522 | 98 | 166 | 5.0 | 14.0 | 0.00 | 0.00 | 0.00 | 44 | 1007.0 |
| 20260903215539 | 99 | 142 | 4.0 | 14.0 | 0.00 | 0.00 | 0.00 | 43 | 1006.9 |
| 20260903214540 | 99 | 172 | 4.0 | 10.0 | 0.00 | 0.00 | 0.00 | 42 | 1007.0 |
| 20260903213530 | 99 | 218 | 4.0 | 14.0 | 0.00 | 0.00 | 0.00 | 42 | 1007.1 |
| 20260903212513 | 99 | 139 | 4.0 | 14.0 | 0.00 | 0.00 | 0.00 | 42 | 1007.2 |
| 20260903211506 | 100 | 129 | 3.0 | 10.0 | 0.00 | 0.00 | 0.00 | 40 | 1007.2 |
| 20260903210518 | 101 | 165 | 2.0 | 11.0 | 0.00 | 0.00 | 0.00 | 39 | 1007.3 |
| 20260903204321 | 101 | 224 | 4.0 | 13.0 | 0.00 | 0.00 | 0.00 | 42 | 1007.7 |
| 20260903203342 | 101 | 65 | 4.0 | 11.0 | 0.00 | 0.00 | 0.00 | 41 | 1007.8 |
| 20260903202324 | 102 | 178 | 2.0 | 10.0 | 0.00 | 0.00 | 0.00 | 40 | 1007.9 |
| 20260903201307 | 102 | 196 | 3.0 | 10.0 | 0.00 | 0.00 | 0.00 | 40 | 1008.1 |
| 20260903200327 | 101 | 197 | 2.0 | 8.0 | 0.00 | 0.00 | 0.00 | 39 | 1008.1 |
| 20260903195330 | 101 | 261 | 3.0 | 10.0 | 0.00 | 0.00 | 0.00 | 41 | 1008.1 |
| 20260903194323 | 100 | 191 | 4.0 | 10.0 | 0.00 | 0.00 | 0.00 | 42 | 1008.2 |
| 20260903193249 | 101 | 151 | 2.0 | 9.0 | 0.00 | 0.00 | 0.00 | 42 | 1008.4 |
| 20260903192229 | 100 | 205 | 3.0 | 9.0 | 0.00 | 0.00 | 0.00 | 44 | 1008.7 |
| 20260903190138 | 99 | 167 | 2.0 | 12.0 | 0.00 | 0.00 | 0.00 | 44 | 1009.0 |
| 20260903185105 | 99 | 192 | 4.0 | 12.0 | 0.00 | 0.00 | 0.00 | 45 | 1009.2 |
| 20260903184040 | 99 | 215 | 4.0 | 10.0 | 0.00 | 0.00 | 0.00 | 46 | 1009.3 |
| 20260903183036 | 98 | 205 | 4.0 | 11.0 | 0.00 | 0.00 | 0.00 | 47 | 1009.4 |
| 20260903182039 | 98 | 165 | 4.0 | 11.0 | 0.00 | 0.00 | 0.00 | 47 | 1009.6 |
| 20260903181023 | 98 | 197 | 2.0 | 10.0 | 0.00 | 0.00 | 0.00 | 47 | 1009.7 |
| 20260903180042 | 97 | 208 | 3.0 | 15.0 | 0.00 | 0.00 | 0.00 | 46 | 1009.8 |
| 20260903175047 | 97 | 166 | 4.0 | 15.0 | 0.00 | 0.00 | 0.00 | 49 | 1009.9 |
| 20260903174107 | 96 | 163 | 5.0 | 15.0 | 0.00 | 0.00 | 0.00 | 49 | 1009.8 |
| 20260903173123 | 96 | 155 | 2.0 | 10.0 | 0.00 | 0.00 | 0.00 | 51 | 1010.0 |
| 20260903171006 | 95 | 173 | 4.0 | 12.0 | 0.00 | 0.00 | 0.00 | 52 | 1010.3 |
| 20260903170022 | 95 | 200 | 3.0 | 7.0 | 0.00 | 0.00 | 0.00 | 53 | 1010.5 |
| 20260903165034 | 94 | 246 | 3.0 | 11.0 | 0.00 | 0.00 | 0.00 | 54 | 1010.5 |
| 20260903164040 | 93 | 196 | 4.0 | 15.0 | 0.00 | 0.00 | 0.00 | 56 | 1010.6 |
| 20260903161909 | 92 | 219 | 4.0 | 12.0 | 0.00 | 0.00 | 0.00 | 57 | 1010.6 |
| 20260903160932 | 91 | 202 | 2.0 | 10.0 | 0.00 | 0.00 | 0.00 | 59 | 1010.6 |
| 20260903155931 | 91 | 231 | 4.0 | 13.0 | 0.00 | 0.00 | 0.00 | 59 | 1010.6 |
| 20260903153739 | 89 | 184 | 3.0 | 14.0 | 0.00 | 0.00 | 0.00 | 64 | 1010.6 |
| 20260903152753 | 88 | 255 | 4.0 | 14.0 | 0.00 | 0.00 | 0.00 | 65 | 1010.5 |
| 20260903150641 | 87 | 218 | 3.0 | 14.0 | 0.00 | 0.00 | 0.00 | 68 | 1010.5 |
| 20260903144525 | 85 | 173 | 3.0 | 9.0 | 0.00 | 0.00 | 0.00 | 72 | 1010.4 |
| 20260903142356 | 84 | 214 | 3.0 | 15.0 | 0.00 | 0.00 | 0.00 | 75 | 1010.4 |
| 20260903141419 | 84 | 151 | 4.0 | 12.0 | 0.00 | 0.00 | 0.00 | 77 | 1010.4 |
| 20260903140426 | 83 | 234 | 4.0 | 14.0 | 0.00 | 0.00 | 0.00 | 78 | 1010.4 |
| 20260903133207 | 81 | 215 | 3.0 | 13.0 | 0.00 | 0.00 | 0.00 | 83 | 1010.6 |
| 20260903131059 | 81 | 210 | 4.0 | 13.0 | 0.00 | 0.00 | 0.00 | 84 | 1010.6 |
| 20260903130048 | 81 | 213 | 3.0 | 13.0 | 0.00 | 0.00 | 0.00 | 84 | 1010.5 |
| 20260903125026 | 80 | 175 | 5.0 | 13.0 | 0.00 | 0.00 | 0.00 | 85 | 1010.4 |
| 20260903123952 | 80 | 165 | 3.0 | 14.0 | 0.00 | 0.00 | 0.00 | 85 | 1010.5 |
| 20260903122930 | 80 | 186 | 4.0 | 14.0 | 0.00 | 0.00 | 0.00 | 85 | 1010.4 |
| 20260903121919 | 80 | 177 | 3.0 | 10.0 | 0.00 | 0.00 | 0.00 | 86 | 1010.3 |
| 20260903120913 | 80 | 202 | 3.0 | 12.0 | 0.00 | 0.00 | 0.00 | 86 | 1010.2 |
| 20260903115913 | 80 | 194 | 3.0 | 17.0 | 0.00 | 0.00 | 0.00 | 86 | 1010.0 |
| 20260903114901 | 80 | 171 | 4.0 | 17.0 | 0.00 | 0.00 | 0.00 | 86 | 1009.9 |
| 20260903113828 | 80 | 205 | 4.0 | 12.0 | 0.00 | 0.00 | 0.00 | 86 | 1009.9 |
| 20260903112846 | 80 | 176 | 4.0 | 12.0 | 0.00 | 0.00 | 0.00 | 86 | 1010.0 |
| 20260903110720 | 80 | 186 | 4.0 | 15.0 | 0.00 | 0.00 | 0.00 | 86 | 1009.9 |
| 20260903103356 | 79 | 175 | 5.0 | 13.0 | 0.00 | 0.00 | 0.00 | 88 | 1009.7 |
| 20260903102341 | 79 | 165 | 5.0 | 13.0 | 0.00 | 0.00 | 0.00 | 88 | 1009.6 |
| 20260903100206 | 79 | 175 | 4.0 | 9.0 | 0.00 | 0.00 | 0.00 | 88 | 1009.7 |
| 20260903094107 | 79 | 161 | 3.0 | 10.0 | 0.00 | 0.00 | 0.00 | 88 | 1009.8 |
| 20260903091925 | 79 | 188 | 4.0 | 10.0 | 0.00 | 0.00 | 0.00 | 87 | 1009.9 |
| 20260903090852 | 79 | 163 | 4.0 | 13.0 | 0.00 | 0.00 | 0.00 | 87 | 1010.0 |
| 20260903084654 | 79 | 204 | 5.0 | 14.0 | 0.00 | 0.00 | 0.00 | 86 | 1009.9 |
| 20260903083700 | 79 | 198 | 5.0 | 14.0 | 0.00 | 0.00 | 0.00 | 86 | 1009.9 |
| 20260903082641 | 79 | 165 | 5.0 | 14.0 | 0.00 | 0.00 | 0.00 | 85 | 1010.0 |
| 20260903080547 | 80 | 174 | 4.0 | 11.0 | 0.00 | 0.00 | 0.00 | 84 | 1010.0 |
| 20260903075601 | 80 | 191 | 4.0 | 11.0 | 0.00 | 0.00 | 0.00 | 84 | 1010.1 |
| 20260903074608 | 80 | 146 | 5.0 | 12.0 | 0.00 | 0.00 | 0.00 | 84 | 1010.1 |
| 20260903073538 | 80 | 193 | 5.0 | 12.0 | 0.00 | 0.00 | 0.00 | 83 | 1010.2 |
| 20260903072511 | 80 | 159 | 5.0 | 14.0 | 0.00 | 0.00 | 0.00 | 82 | 1010.2 |
| 20260903070418 | 81 | 174 | 5.0 | 13.0 | 0.00 | 0.00 | 0.00 | 81 | 1010.2 |
| 20260903065344 | 81 | 210 | 5.0 | 13.0 | 0.00 | 0.00 | 0.00 | 80 | 1010.3 |
| 20260903063226 | 82 | 155 | 5.0 | 15.0 | 0.00 | 0.00 | 0.00 | 78 | 1010.3 |
| 20260903062237 | 82 | 180 | 6.0 | 15.0 | 0.00 | 0.00 | 0.00 | 77 | 1010.4 |
| 20260903061214 | 82 | 205 | 6.0 | 20.0 | 0.00 | 0.00 | 0.00 | 75 | 1010.5 |
| 20260903060231 | 83 | 202 | 6.0 | 20.0 | 0.00 | 0.00 | 0.00 | 73 | 1010.5 |
| 20260903054050 | 83 | 170 | 6.0 | 15.0 | 0.00 | 0.00 | 0.00 | 70 | 1010.4 |
| 20260903053034 | 84 | 153 | 6.0 | 15.0 | 0.00 | 0.00 | 0.00 | 69 | 1010.5 |
| 20260903052017 | 84 | 133 | 6.0 | 13.0 | 0.00 | 0.00 | 0.00 | 68 | 1010.5 |
| 20260903051009 | 84 | 153 | 5.0 | 13.0 | 0.00 | 0.00 | 0.00 | 67 | 1010.4 |
| 20260903044921 | 85 | 167 | 4.0 | 12.0 | 0.00 | 0.00 | 0.00 | 65 | 1010.2 |
| 20260903043939 | 85 | 173 | 3.0 | 12.0 | 0.00 | 0.00 | 0.00 | 64 | 1010.2 |
| 20260903042953 | 85 | 128 | 3.0 | 8.0 | 0.00 | 0.00 | 0.00 | 64 | 1010.1 |
| 20260903042011 | 85 | 117 | 3.0 | 9.0 | 0.00 | 0.00 | 0.00 | 63 | 1010.1 |
| 20260903040946 | 86 | 128 | 3.0 | 10.0 | 0.00 | 0.00 | 0.00 | 62 | 1010.0 |
| 20260903035959 | 86 | 126 | 3.0 | 10.0 | 0.00 | 0.00 | 0.00 | 62 | 1009.9 |
| 20260903035015 | 86 | 69 | 3.0 | 13.0 | 0.00 | 0.00 | 0.00 | 60 | 1010.0 |
| 20260903034024 | 87 | 181 | 4.0 | 13.0 | 0.00 | 0.00 | 0.00 | 59 | 1010.0 |
| 20260903031826 | 87 | 202 | 2.0 | 7.0 | 0.00 | 0.00 | 0.00 | 58 | 1009.8 |
| 20260903030811 | 88 | 113 | 2.0 | 7.0 | 0.00 | 0.00 | 0.00 | 57 | 1009.5 |
| 20260903023533 | 89 | 119 | 2.0 | 7.0 | 0.00 | 0.00 | 0.00 | 55 | 1009.0 |
| 20260903021424 | 89 | 107 | 1.0 | 6.0 | 0.00 | 0.00 | 0.00 | 53 | 1008.6 |
| 20260903020415 | 90 | 112 | 2.0 | 6.0 | 0.00 | 0.00 | 0.00 | 53 | 1008.4 |
| 20260903015403 | 90 | 117 | 1.0 | 3.0 | 0.00 | 0.00 | 0.00 | 51 | 1008.3 |
| 20260903014334 | 91 | 109 | 1.0 | 3.0 | 0.00 | 0.00 | 0.00 | 50 | 1008.3 |
| 20260903012226 | 93 | 99 | 0.0 | 2.0 | 0.00 | 0.00 | 0.00 | 47 | 1008.1 |
| 20260903011250 | 94 | 90 | 0.0 | 2.0 | 0.00 | 0.00 | 0.00 | 46 | 1008.0 |
| 20260903005150 | 95 | 128 | 0.0 | 1.0 | 0.00 | 0.00 | 0.00 | 43 | 1008.0 |
| 20260903004152 | 96 | 128 | 0.0 | 1.0 | 0.00 | 0.00 | 0.00 | 42 | 1008.1 |
| 20260903003156 | 96 | 128 | 1.0 | 3.0 | 0.00 | 0.00 | 0.00 | 41 | 1008.0 |
| 20260903001035 | 97 | 168 | 1.0 | 4.0 | 0.00 | 0.00 | 0.00 | 40 | 1008.1 |
| 20260903000044 | 98 | 161 | 0.0 | 3.0 | 0.00 | 0.00 | 0.00 | 40 | 1008.1 |